Flag for U.S.A. Weather past 2 weeks in Garland, Texas, U.S.A.

Now
47 °F

Low clouds.


Feels Like: 47 °F
Forecast: 44 / 54 °F
Wind: No wind

Location: Mesquite Metro Airport

Current Time: Dec 20, 2014 at 12:10:57 AM

Latest Report: Dec 19, 2014 at 11:35 PM


Visibility: 5 mi

Pressure: 30.23 "Hg

Humidity: 92%

Dew point: 45 °F

Location of GarlandLocation

Historic Weather in Garland — Graph

°F

Garland temperature yesterday

Maximum temperature yesterday: 48 °F (at 2:50 PM)
Minimum temperature yesterday: 45 °F (at 7:50 AM)
Average temperature yesterday: 46 °F

Past Weeks' High & Low Weather Summary

 TemperatureHumidityPressure
High77 °F (Dec 5, 2:50 PM)100% (Dec 7, 7:50 AM)30.43 "Hg (Dec 7, 7:50 AM)
Low37 °F (Dec 9, 2:15 AM)32% (Dec 15, 2:50 PM)29.80 "Hg (Dec 14, 6:50 PM)
Average52 °F83%30.20 "Hg
* Reported Dec 4 10:15 PM — Dec 19 10:55 PM, Garland, Weather by CustomWeather, © 2014

Note: Actual official high and low records may vary slightly from our data, if they occured in-between our weather recording intervals... More about our weather records

Advertising

Garland weather history for previous 24 hours

 ConditionsComfort  
Time TempWeatherWind HumidityBarometerVisibility
10:55 PM
Dec 19
47 °FMostly cloudy.5 mph91%30.23 "Hg7 mi
10:35 PM47 °FMostly cloudy.6 mph90%30.22 "Hg10 mi
10:15 PM47 °FMostly cloudy.6 mph90%30.22 "Hg7 mi
9:55 PM47 °FOvercast.7 mph91%30.22 "Hg7 mi
9:35 PM47 °FOvercast.7 mph91%30.22 "Hg7 mi
8:55 PM47 °FLow clouds.7 mph94%30.21 "Hg7 mi
7:50 PM48 °FLow clouds.6 mph87%30.19 "Hg7 mi
6:50 PM48 °FLow clouds.7 mph94%30.19 "Hg10 mi
5:50 PM48 °FLow clouds.9 mph94%30.18 "Hg7 mi
4:50 PM48 °FFog.8 mph94%30.17 "Hg5 mi
3:50 PM48 °FOvercast.7 mph94%30.16 "Hg7 mi
2:50 PM48 °FFog.5 mph94%30.15 "Hg5 mi
1:50 PM46 °FFog.6 mph100%30.15 "Hg3 mi
12:50 PM46 °FFog.8 mph93%30.17 "Hg4 mi
11:50 AM46 °FFog.10 mph93%30.19 "Hg4 mi
10:50 AM46 °FFog.9 mph93%30.20 "Hg3 mi
9:50 AM46 °FFog.8 mph93%30.20 "Hg4 mi
8:50 AM45 °FFog.6 mph100%30.20 "Hg3 mi
7:50 AM45 °FFog.5 mph100%30.17 "Hg4 mi
6:50 AM46 °FFog.5 mph93%30.18 "Hg4 mi
4:35 AM46 °FLow clouds.3 mph93%30.16 "Hg7 mi
4:15 AM45 °FLow clouds.7 mph93%30.14 "Hg5 mi
3:55 AM45 °FLow clouds.3 mph93%30.17 "Hg7 mi
3:35 AM45 °FLow clouds.5 mph93%30.11 "Hg5 mi
3:15 AM45 °FLow clouds.8 mph93%30.12 "Hg5 mi
2:55 AM45 °FLow clouds.7 mph93%30.16 "Hg5 mi
2:35 AM45 °FLow clouds.8 mph93%30.15 "Hg5 mi
2:15 AM46 °FLow clouds.7 mph93%30.16 "Hg5 mi
1:55 AM46 °FLow clouds.5 mph93%30.17 "Hg7 mi
1:35 AM46 °FLow clouds.3 mph93%30.17 "Hg5 mi
1:15 AM46 °FLow clouds.6 mph93%30.17 "Hg5 mi
12:55 AM46 °FLow clouds.7 mph94%30.16 "Hg5 mi
12:15 AM46 °FLow clouds.6 mph95%30.16 "Hg4 mi
Weather by CustomWeather, © 2014

See weather overviewHow to use our weather pages